STARLINK-32301, 61664

Orbit data source: Space-Track

STARLINK-32301, 61664 is a payload satellite owned by SpaceX/Seattle (US) in LEO that was launched on Sat, 26 Oct 2024 UTC via an FALCON 9 launch vehicle from the Air Force Eastern Test Range (AFETR). Payloads include a variety of satellites, spacecraft, and rockets equipped with specific instruments for various scientific and technological missions. These include communications satellites like Starlink; space stations such as the ISS; scientific satellites like the Hubble; Earth observation satellites from companies like Planet Labs, Umbra, and HawkEye 360; GPS; miniature CubeSats for education and research; and military/defense satellites.

Loading next visibility...
STARLINK-32301 details
Identifier
61664, 2024-193D
Orbit
LEO
Last TLE update15 hours ago
Origin
Flag of USSpaceX/Seattle (US)
ManufacturerSpaceX/Seattle
MissionOperational spacecraft
Bus & MotorSTARLINK V2M, Unknown motor
Mass730 kg wet, ~700 kg dry
Launch date (UTC)
2024-10-26 (2 months ago)
Launch vehicle
FALCON 9
Launch site
Air Force Eastern Test Range (AFETR)
Object type
Payload
Rocket body
Debris
Shape & HBRUnknown
Radar Cross SectionLarge (>1 m²)

Expand to show TLE details & history

TLE from 15 hours ago
0 STARLINK-32301
1 61664U 24193D   24361.24005711 -.00001554  00000-0 -28879-4 0  9993
2 61664  53.1629 330.0082 0001473 109.6665 250.4498 15.39605194 10483
Epoch: 2024-12-26T05:45Z
Definitive object data (Epoch: 2024-12-26T05:45:40.934Z)
Latitude-0.00009°
Longitude148.36528°
Altitude448.516 km
Speed7.644 km/s
True Right ascension22h 00m 01s
True Declination0° 00' 00"
Sunlit
Object was in daylight at TLE epoch
Visualization TLE readout
Latitude-23.98311°
Longitude-15.21221°
Altitude454.343 km
Speed7.64 km/s
Apparent Right ascension09h 46m 37s
Apparent Declination-33° 33' 51"
Sunlit
Object is in daylight
Visualization observer readout
Local Sidereal Time20:04:24
Azimuth279.219° WNW
Elevation-68.646°
Doppler factor1
Orbital elements
Apogee altitude448.538 km
Perigee altitude446.527 km
Semi-major axis6,825.67 km
Eccentricity0.0001473
Inclination53.1629°
RAAN330.0082°
Arg. of periapsis109.6665°
True anomaly250.43389°
Mean anomaly250.4498°
Eccentric anomaly250.44185°
Mean motion3.8488 °/min
BSTAR-0.000028879
Orbital period93.54 mins
Loading maneuver chart data...
Loading historical data...
Loading historical data...
Loading historical data...
Loading historical data...
Loading historical data...
Loading historical data...
Loading historical data...

STARLINK-32301 Visibility forecast

Observer location: undefined°, undefined

Span
Click to sort rows by Start time (UTC) header in descending order
Start Az.
Max El. time (UTC)
Max El. Az.
Max El.
End time (UTC)
End Az.
6 mins2024-12-27 00:37:32.705Z216.877° SW2024-12-27 00:40:32.705Z145.527° SSE41.456°2024-12-27 00:43:32.705Z57.434° ENE
4 mins2024-12-27 02:16:32.705Z298.341° NW2024-12-27 02:18:32.705Z343.821° N19.14°2024-12-27 02:20:32.705Z21.47° NNE
4 mins2024-12-27 07:11:32.705Z333.521° NNW2024-12-27 07:13:32.705Z61.711° ENE35.848°2024-12-27 07:15:32.705Z106.986° ESE
|